TimeHST,TemperatureF,Dew PointF,Humidity,Sea Level PressureIn,VisibilityMPH,Wind Direction,Wind SpeedMPH,Gust SpeedMPH,PrecipitationIn,Events,Conditions,WindDirDegrees,DateUTC
12:53 AM,71.1,55.9,59,30.03,10.0,Calm,Calm,-,N/A,,Clear,0,2012-12-17 10:53:00
1:53 AM,70.0,55.0,59,30.02,10.0,East,5.8,-,N/A,,Clear,80,2012-12-17 11:53:00
2:53 AM,69.1,55.9,63,30.01,10.0,North,3.5,-,N/A,,Clear,360,2012-12-17 12:53:00
3:53 AM,69.1,55.0,61,30.01,10.0,Calm,Calm,-,N/A,,Clear,0,2012-12-17 13:53:00
4:53 AM,68.0,55.9,65,30.01,10.0,Calm,Calm,-,N/A,,Clear,0,2012-12-17 14:53:00
5:53 AM,70.0,57.0,63,30.02,10.0,Calm,Calm,-,N/A,,Clear,0,2012-12-17 15:53:00
6:53 AM,68.0,57.0,68,30.04,10.0,Calm,Calm,-,N/A,,Clear,0,2012-12-17 16:53:00
7:53 AM,72.0,57.0,59,30.04,10.0,Calm,Calm,-,N/A,,Clear,0,2012-12-17 17:53:00
8:53 AM,77.0,57.9,52,30.05,10.0,South,3.5,-,N/A,,Clear,190,2012-12-17 18:53:00
9:53 AM,79.0,61.0,54,30.06,10.0,SSW,5.8,-,N/A,,Clear,210,2012-12-17 19:53:00
10:53 AM,79.0,62.1,56,30.05,10.0,South,8.1,-,N/A,,Clear,190,2012-12-17 20:53:00
11:53 AM,80.1,63.0,56,30.02,10.0,SW,9.2,-,N/A,,Clear,220,2012-12-17 21:53:00
2:53 PM,82.0,64.9,56,29.97,10.0,SW,9.2,-,N/A,,Clear,220,2012-12-18 00:53:00
3:53 PM,79.0,66.0,64,29.98,10.0,SSW,9.2,-,N/A,,Clear,210,2012-12-18 01:53:00
4:53 PM,78.1,66.0,66,29.99,10.0,South,6.9,-,N/A,,Clear,170,2012-12-18 02:53:00
5:53 PM,77.0,64.9,66,30.00,10.0,Variable,4.6,-,N/A,,Partly Cloudy,0,2012-12-18 03:53:00
6:53 PM,77.0,64.9,66,30.02,10.0,South,6.9,-,N/A,,Clear,180,2012-12-18 04:53:00
7:53 PM,75.0,64.9,71,30.04,10.0,ESE,4.6,-,N/A,,Scattered Clouds,110,2012-12-18 05:53:00
8:53 PM,73.9,64.0,71,30.05,10.0,ESE,8.1,-,N/A,,Clear,120,2012-12-18 06:53:00
9:53 PM,73.9,63.0,68,30.05,10.0,ESE,6.9,-,N/A,,Clear,110,2012-12-18 07:53:00
10:53 PM,73.0,62.1,68,30.03,10.0,SE,5.8,-,N/A,,Clear,130,2012-12-18 08:53:00
11:53 PM,73.0,62.1,68,30.02,10.0,ESE,6.9,-,N/A,,Clear,110,2012-12-18 09:53:00